Change the Weather History Date:

Saturday, October 6, 2012

  Actual Average (KABI) Record (KABI)
Temperature  
Mean Temperature 50 °F 69 °F  
Max Temperature 55 °F 80 °F 97 °F (1931)
Min Temperature 46 °F 57 °F 41 °F (1991)
Degree Days  
Heating Degree Days 14 2  
Month to date heating degree days 8  
Since 1 July heating degree days 19  
Cooling Degree Days 0 5  
Month to date cooling degree days 36  
Year to date cooling degree days 2307  
Moisture  
Dew Point 41 °F    
Average Humidity 67    
Maximum Humidity 81    
Minimum Humidity 54    
Precipitation  
Precipitation 0.00 in 0.09 in 2.52 in (2005)
Month to date precipitation 0.52  
Year to date precipitation 19.72  
Sea Level Pressure  
Sea Level Pressure 30.19 in    
Wind  
Wind Speed 11 mph (NNE)    
Max Wind Speed 15 mph    
Max Gust Speed 20 mph    
Visibility 10 miles    
Events      
T = Trace of Precipitation, MM = Missing Value Source: NWS Daily Summary

Daily Weather History Graph

Daily Weather History Graph

Search for Another Location

Airport or City:

Trip Planner

Search our weather history database for the weather conditions in past years. The results will help you decide how hot, cold, wet, or windy it might be!

Date:

Astronomy

Oct. 06, 2012 Rise Set
Actual Time 7:33 AM CDT 7:13 PM CDT
Civil Twilight 7:08 AM CDT 7:37 PM CDT
Nautical Twilight 6:40 AM CDT 8:06 PM CDT
Astronomical Twilight 6:11 AM CDT 8:34 PM CDT
Moon 11:44 PM CDT (10/6) 1:14 PM CDT (10/6)
Length of Visible Light 12h 28m
Length of Day
11h 39m
Waning Gibbous, 65% of the Moon is Illuminated
Oct 6
Waning Gibbous
Oct 8
Last Quarter
Oct 15
New
Oct 21
First Quarter
Oct 29
Full

Hourly Weather History & Observations

Time (CDT) Temp. Windchill Dew Point Humidity Pressure Visibility Wind Dir Wind Speed Gust Speed Precip Events Conditions
12:15 AM 55.4 °F - 46.4 °F 72% 30.13 in 10.0 mi NE 10.4 mph - N/A   Overcast
12:35 AM 55.4 °F - 46.4 °F 72% 30.12 in 10.0 mi NE 10.4 mph - N/A   Overcast
12:55 AM 55.4 °F - 46.4 °F 72% 30.13 in 10.0 mi NE 15.0 mph 19.6 mph N/A   Overcast
1:15 AM 55.4 °F - 46.4 °F 72% 30.13 in 10.0 mi NE 12.7 mph 19.6 mph N/A   Overcast
1:35 AM 55.4 °F - 46.4 °F 72% 30.13 in 10.0 mi NE 11.5 mph - N/A   Overcast
1:55 AM 55.4 °F - 46.4 °F 72% 30.14 in 10.0 mi NNE 10.4 mph - N/A   Overcast
2:15 AM 55.4 °F - 46.4 °F 72% 30.15 in 10.0 mi NNE 10.4 mph 16.1 mph N/A   Overcast
2:35 AM 55.4 °F - 46.4 °F 72% 30.15 in 10.0 mi NE 12.7 mph 16.1 mph N/A   Overcast
2:55 AM 55.4 °F - 46.4 °F 72% 30.15 in 10.0 mi NE 10.4 mph 16.1 mph N/A   Overcast
3:15 AM 53.6 °F - 44.6 °F 72% 30.15 in 10.0 mi NE 9.2 mph 16.1 mph N/A   Overcast
3:35 AM 53.6 °F - 44.6 °F 72% 30.15 in 10.0 mi NE 11.5 mph - N/A   Overcast
3:55 AM 53.6 °F - 44.6 °F 72% 30.15 in 10.0 mi NE 11.5 mph - N/A   Overcast
4:15 AM 53.6 °F - 44.6 °F 72% 30.15 in 10.0 mi NE 12.7 mph 17.3 mph N/A   Overcast
4:35 AM 53.6 °F - 44.6 °F 72% 30.15 in 10.0 mi NNE 9.2 mph - N/A   Overcast
4:55 AM 53.6 °F - 44.6 °F 72% 30.15 in 10.0 mi NE 12.7 mph - N/A   Overcast
5:15 AM 53.6 °F - 42.8 °F 67% 30.15 in 10.0 mi NE 12.7 mph 18.4 mph N/A   Overcast
5:35 AM 53.6 °F - 42.8 °F 67% 30.15 in 10.0 mi NE 15.0 mph 18.4 mph N/A   Overcast
5:55 AM 53.6 °F - 42.8 °F 67% 30.15 in 10.0 mi NE 15.0 mph 19.6 mph N/A   Overcast
6:15 AM 53.6 °F - 42.8 °F 67% 30.16 in 10.0 mi NE 11.5 mph 18.4 mph N/A   Overcast
6:35 AM 51.8 °F - 42.8 °F 71% 30.16 in 10.0 mi NNE 13.8 mph 17.3 mph N/A   Overcast
6:55 AM 51.8 °F - 42.8 °F 71% 30.17 in 10.0 mi NNE 12.7 mph 16.1 mph N/A   Overcast
7:15 AM 51.8 °F - 42.8 °F 71% 30.17 in 10.0 mi NE 10.4 mph 18.4 mph N/A   Overcast
7:35 AM 51.8 °F - 42.8 °F 71% 30.17 in 10.0 mi NNE 13.8 mph - N/A   Overcast
7:55 AM 51.8 °F - 42.8 °F 71% 30.17 in 10.0 mi NNE 10.4 mph 17.3 mph N/A   Overcast
8:15 AM 50.0 °F - 41.0 °F 71% 30.17 in 10.0 mi NNE 10.4 mph 16.1 mph N/A   Overcast
8:35 AM 51.8 °F - 41.0 °F 67% 30.18 in 10.0 mi NE 11.5 mph - N/A   Overcast
8:55 AM 50.0 °F - 41.0 °F 71% 30.18 in 10.0 mi NE 9.2 mph 16.1 mph N/A   Overcast
9:15 AM 50.0 °F - 41.0 °F 71% 30.19 in 10.0 mi NE 11.5 mph 18.4 mph N/A   Overcast
9:35 AM 51.8 °F - 41.0 °F 67% 30.20 in 10.0 mi NE 9.2 mph - N/A   Overcast
9:55 AM 51.8 °F - 37.4 °F 58% 30.20 in 10.0 mi NNE 9.2 mph 16.1 mph N/A   Overcast
10:15 AM 51.8 °F - 37.4 °F 58% 30.20 in 10.0 mi NE 9.2 mph - N/A   Overcast
10:35 AM 51.8 °F - 37.4 °F 58% 30.21 in 10.0 mi NE 9.2 mph - N/A   Overcast
10:55 AM 51.8 °F - 37.4 °F 58% 30.22 in 10.0 mi North 9.2 mph - N/A   Overcast
11:15 AM 51.8 °F - 37.4 °F 58% 30.21 in 10.0 mi NNE 9.2 mph - N/A   Overcast
11:35 AM 51.8 °F - 37.4 °F 58% 30.21 in 10.0 mi NNE 8.1 mph - N/A   Overcast
11:55 AM 51.8 °F - 37.4 °F 58% 30.21 in 10.0 mi NNE 5.8 mph - N/A   Overcast
12:15 PM 51.8 °F - 37.4 °F 58% 30.20 in 10.0 mi North 8.1 mph 17.3 mph N/A   Overcast
12:35 PM 53.6 °F - 37.4 °F 54% 30.20 in 10.0 mi North 8.1 mph - N/A   Overcast
12:55 PM 53.6 °F - 37.4 °F 54% 30.20 in 10.0 mi North 8.1 mph - N/A   Overcast
1:15 PM 53.6 °F - 37.4 °F 54% 30.19 in 10.0 mi NNE 8.1 mph - N/A   Overcast
1:35 PM 53.6 °F - 37.4 °F 54% 30.18 in 10.0 mi ENE 8.1 mph - N/A   Overcast
1:55 PM 53.6 °F - 37.4 °F 54% 30.17 in 10.0 mi NNE 5.8 mph - N/A   Overcast
2:15 PM 55.4 °F - 39.2 °F 54% 30.17 in 10.0 mi NNE 6.9 mph - N/A   Overcast
2:35 PM 55.4 °F - 39.2 °F 54% 30.16 in 10.0 mi NNE 6.9 mph - N/A   Overcast
2:55 PM 55.4 °F - 39.2 °F 54% 30.16 in 10.0 mi North 5.8 mph - N/A   Overcast
3:15 PM 55.4 °F - 39.2 °F 54% 30.16 in 10.0 mi North 9.2 mph - N/A   Overcast
3:35 PM 53.6 °F - 39.2 °F 58% 30.16 in 10.0 mi NNE 12.7 mph 18.4 mph N/A   Overcast
3:55 PM 53.6 °F - 39.2 °F 58% 30.17 in 10.0 mi North 9.2 mph - N/A   Overcast
4:15 PM 53.6 °F - 39.2 °F 58% 30.17 in 10.0 mi NNE 11.5 mph - N/A   Overcast
4:35 PM 51.8 °F - 39.2 °F 62% 30.17 in 10.0 mi North 9.2 mph - N/A   Overcast
4:55 PM 51.8 °F - 39.2 °F 62% 30.17 in 10.0 mi North 11.5 mph - N/A   Overcast
5:15 PM 51.8 °F - 39.2 °F 62% 30.17 in 10.0 mi NNE 10.4 mph - N/A   Overcast
5:35 PM 50.0 °F - 39.2 °F 66% 30.18 in 10.0 mi NNE 13.8 mph - N/A   Overcast
5:55 PM 50.0 °F - 39.2 °F 66% 30.18 in 10.0 mi NNE 11.5 mph 18.4 mph N/A   Overcast
6:15 PM 48.2 °F - 41.0 °F 76% 30.19 in 10.0 mi NNE 11.5 mph 18.4 mph N/A   Overcast
6:35 PM 48.2 °F - 41.0 °F 76% 30.19 in 10.0 mi NE 12.7 mph 16.1 mph N/A   Overcast
6:55 PM 46.4 °F 40.4 °F 41.0 °F 81% 30.19 in 10.0 mi NNE 13.8 mph 17.3 mph N/A   Overcast
7:15 PM 46.4 °F 41.5 °F 39.2 °F 76% 30.20 in 10.0 mi NNE 10.4 mph 19.6 mph N/A   Overcast
7:35 PM 46.4 °F 40.7 °F 39.2 °F 76% 30.21 in 10.0 mi NE 12.7 mph 18.4 mph N/A   Overcast
7:55 PM 46.4 °F 41.1 °F 41.0 °F 81% 30.21 in 10.0 mi NNE 11.5 mph 17.3 mph N/A   Overcast
8:15 PM 46.4 °F 41.9 °F 41.0 °F 81% 30.23 in 10.0 mi NNE 9.2 mph 17.3 mph N/A   Overcast
8:35 PM 46.4 °F 41.5 °F 41.0 °F 81% 30.23 in 10.0 mi NE 10.4 mph - N/A   Overcast
8:55 PM 46.4 °F 40.1 °F 41.0 °F 81% 30.25 in 10.0 mi NE 15.0 mph 18.4 mph N/A   Overcast
9:15 PM 46.4 °F 40.7 °F 41.0 °F 81% 30.25 in 10.0 mi ENE 12.7 mph - N/A   Overcast
9:35 PM 46.4 °F 40.7 °F 37.4 °F 71% 30.26 in 10.0 mi NE 12.7 mph 18.4 mph N/A   Overcast
9:55 PM 46.4 °F 40.1 °F 37.4 °F 71% 30.26 in 5.0 mi NE 15.0 mph 18.4 mph N/A   Haze
10:15 PM 46.4 °F 41.9 °F 35.6 °F 66% 30.27 in 5.0 mi NNE 9.2 mph 16.1 mph N/A   Haze
10:35 PM 46.4 °F 41.5 °F 35.6 °F 66% 30.28 in 4.0 mi NE 10.4 mph 17.3 mph N/A   Haze
10:55 PM 46.4 °F 40.1 °F 35.6 °F 66% 30.29 in 5.0 mi ENE 15.0 mph 19.6 mph N/A   Haze
11:15 PM 46.4 °F 41.9 °F 35.6 °F 66% 30.28 in 7.0 mi NE 9.2 mph 19.6 mph N/A   Overcast
11:35 PM 46.4 °F 40.4 °F 33.8 °F 62% 30.28 in 5.0 mi ENE 13.8 mph 18.4 mph N/A   Haze
11:55 PM 46.4 °F 41.1 °F 33.8 °F 62% 30.28 in 7.0 mi NE 11.5 mph - N/A   Overcast